FW0709 Weather Reports


time (UTC)temp
C
wind
direction
speed
KPH
gust
KPH
rain 1hr
cm
rain 24hr
cm
rain mn
cm
humidity
%
barometer
mb
20260906084541 11 333 11.3 27.4 0.00 0.10 0.03 66 1006.9
20260906083044 11 320 9.7 27.4 0.00 0.10 0.03 67 1006.9
20260906081537 11 25 9.7 25.7 0.00 0.10 0.03 70 1006.8
20260906080033 10 328 6.4 29.0 0.00 0.10 0.03 70 1006.8
20260906074533 10 346 16.1 30.6 0.00 0.10 0.03 71 1006.6
20260906073027 10 343 14.5 29.0 0.00 0.10 0.03 72 1006.3
20260906071523 10 317 11.3 25.7 0.00 0.10 0.03 74 1006.1
20260906070021 10 332 9.7 22.5 0.00 0.10 0.03 74 1006.0
20260906064517 10 17 8.0 25.7 0.00 0.10 0.03 75 1005.9
20260906063013 8 300 6.4 25.7 0.00 0.10 0.03 80 1005.7
20260906061510 8 346 11.3 19.3 0.00 0.10 0.03 83 1005.5
20260906060008 8 329 4.8 22.5 0.00 0.10 0.03 84 1005.3
20260906054505 7 5 6.4 19.3 0.00 0.10 0.03 87 1005.0
20260906053003 7 315 6.4 19.3 0.00 0.10 0.03 91 1005.0
20260906051605 6 315 3.2 12.9 0.00 0.10 0.03 93 1004.8
20260906050128 6 336 3.2 8.0 0.00 0.10 0.03 93 1004.7
20260906044556 5 319 3.2 8.0 0.00 0.15 0.03 93 1004.5
20260906043105 6 311 3.2 8.0 0.00 0.15 0.03 92 1004.4
20260906041548 6 311 0.0 4.8 0.00 0.15 0.03 92 1004.2
20260906040048 6 311 0.0 4.8 0.00 0.15 0.03 93 1004.1
20260906034545 6 311 3.2 9.7 0.00 0.15 0.03 93 1003.9
20260906033045 6 319 1.6 6.4 0.00 0.15 0.03 93 1003.8
20260906031544 6 326 1.6 6.4 0.00 0.15 0.03 93 1003.6
20260906030038 6 326 0.0 4.8 0.00 0.15 0.03 93 1003.5
20260906024537 6 327 1.6 8.0 0.00 0.15 0.03 93 1003.4
20260906023036 6 303 3.2 6.4 0.00 0.15 0.03 93 1003.3
20260906021530 6 304 1.6 8.0 0.00 0.15 0.03 93 1003.2
20260906020029 7 304 0.0 4.8 0.00 0.15 0.03 93 1003.2
20260906014531 7 304 3.2 8.0 0.00 0.15 0.03 94 1003.2
20260906013023 7 333 4.8 9.7 0.00 0.15 0.03 94 1002.9
20260906011519 7 328 4.8 14.5 0.00 0.15 0.03 95 1002.8
20260906010017 7 307 4.8 8.0 0.03 0.15 0.03 94 1002.6
20260906004516 7 308 0.0 6.4 0.03 0.15 0.03 94 1002.3
20260906003015 7 308 3.2 6.4 0.03 0.15 0.03 94 1002.3
20260906001512 7 308 0.0 4.8 0.03 0.15 0.03 94 1002.3
20260906000012 7 308 1.6 4.8 0.00 0.13 0.00 93 1002.2
20260905234509 7 308 1.6 8.0 0.00 0.13 0.00 93 1002.2
20260905233015 7 308 0.0 4.8 0.00 0.13 0.00 93 1002.1
20260905231504 7 308 1.6 6.4 0.00 0.13 0.00 93 1002.0
20260905230001 8 308 1.6 6.4 0.00 0.13 0.00 93 1001.9
20260905224609 8 308 0.0 6.4 0.00 0.13 0.00 93 1001.9
20260905223059 8 308 1.6 6.4 0.00 0.13 0.00 93 1001.8
20260905221556 8 312 0.0 6.4 0.00 0.13 0.00 93 1001.8
20260905220053 8 318 3.2 9.7 0.00 0.13 0.00 93 1001.7
20260905214603 8 339 0.0 9.7 0.00 0.13 0.00 93 1001.4
20260905213048 8 326 1.6 6.4 0.00 0.13 0.00 93 1001.4
20260905211542 8 323 1.6 8.0 0.00 0.13 0.00 93 1001.3
20260905210044 8 329 3.2 8.0 0.00 0.13 0.00 93 1001.2
20260905204537 8 320 0.0 4.8 0.00 0.13 0.13 93 1001.1
20260905203035 8 320 0.0 4.8 0.00 0.13 0.13 93 1001.0
20260905201538 8 319 1.6 6.4 0.00 0.13 0.13 93 1000.8
20260905200041 8 319 3.2 6.4 0.00 0.13 0.13 93 1000.7
20260905194530 8 329 1.6 8.0 0.00 0.13 0.13 92 1000.6
20260905193031 8 338 4.8 12.9 0.00 0.13 0.13 92 1000.4
20260905191528 8 329 4.8 14.5 0.00 0.13 0.13 92 1000.3
20260905190026 8 316 1.6 9.7 0.00 0.13 0.13 92 1000.3
20260905184534 8 330 1.6 8.0 0.00 0.13 0.13 92 1000.1
20260905183028 8 324 1.6 6.4 0.00 0.13 0.13 91 1000.1
20260905181522 8 327 3.2 14.5 0.00 0.13 0.13 90 999.9
20260905180020 9 327 1.6 9.7 0.00 0.13 0.13 90 999.8
20260905174529 9 329 1.6 9.7 0.00 0.13 0.13 89 999.6
20260905173019 9 327 3.2 14.5 0.00 0.13 0.13 88 999.5
20260905171516 10 323 6.4 12.9 0.00 0.13 0.13 88 999.4
20260905170014 10 314 4.8 14.5 0.00 0.13 0.13 87 999.2
20260905164512 10 343 8.0 16.1 0.00 0.13 0.13 86 999.0
20260905163010 10 326 12.9 22.5 0.00 0.13 0.13 85 998.8
20260905161508 11 326 8.0 20.9 0.00 0.13 0.13 85 998.7
20260905160009 11 317 11.3 19.3 0.00 0.13 0.13 86 998.6
20260905154505 11 24 6.4 16.1 0.00 0.13 0.13 87 998.4
20260905153008 10 344 11.3 25.7 0.03 0.13 0.13 86 998.3
20260905151502 11 360 9.7 24.1 0.03 0.13 0.13 85 998.1
20260905150002 11 321 6.4 20.9 0.05 0.13 0.13 87 998.0
20260905144559 11 342 4.8 16.1 0.05 0.13 0.13 88 997.8
20260905143058 11 344 8.0 24.1 0.05 0.10 0.10 87 997.6
20260905141611 11 19 6.4 19.3 0.05 0.10 0.10 89 997.4
20260905134606 12 355 8.0 22.5 0.00 0.05 0.05 84 997.3
20260905133057 12 343 11.3 24.1 0.00 0.05 0.05 80 996.8
20260905131556 13 355 6.4 29.0 0.00 0.05 0.05 80 996.8
20260905130052 13 38 11.3 33.8 0.00 0.05 0.05 79 996.7
20260905124547 12 313 9.7 25.7 0.00 0.05 0.05 83 996.4
20260905123045 12 346 8.0 40.2 0.00 0.05 0.05 82 996.3
20260905121543 13 309 16.1 25.7 0.00 0.05 0.05 80 996.0
20260905120041 13 329 17.7 27.4 0.00 0.05 0.05 81 995.9
20260905114613 13 313 8.0 22.5 0.00 0.05 0.05 81 995.8
20260905113039 14 334 14.5 25.7 0.00 0.05 0.05 79 995.7
20260905111542 14 331 8.0 20.9 0.00 0.05 0.05 78 995.5
20260905110034 13 325 9.7 17.7 0.00 0.05 0.05 84 995.2
20260905104534 13 333 8.0 24.1 0.00 0.05 0.05 83 995.1
20260905103035 13 321 9.7 25.7 0.00 0.05 0.05 82 994.9
20260905101530 14 311 12.9 24.1 0.00 0.05 0.05 79 994.8
20260905100028 14 12 8.0 22.5 0.00 0.05 0.05 81 994.5
20260905094523 13 47 3.2 16.1 0.00 0.05 0.05 88 994.3
20260905093022 13 350 8.0 24.1 0.00 0.05 0.05 89 994.3
20260905091518 12 319 3.2 25.7 0.00 0.05 0.05 90 994.2
20260905090017 13 311 11.3 24.1 0.03 0.05 0.05 89 994.1